Location: Peebles
(55.6412°N, 3.1714°W)
Time: 05:58:56
(UTC+01:00)

deb NNS O-4 - Pass Details

Date: 01 July 2022
Orbit: 977 x 1074 km, 89.9° (Epoch: 16 August)

Event Time Altitude Azimuth Distance (km) Brightness Sun altitude
Rises 00:43:02 0° 121° (ESE) 3,864 ? -10.9°
Reaches altitude 10° 00:46:19 10° 106° (ESE) 2,909 ? -11.0°
Maximum altitude 00:50:51 20° 62° (ENE) 2,256 ? -11.0°
Drops below altitude 10° 00:55:22 10° 19° (NNE) 2,894 ? -11.1°
Sets 00:58:37 0° 4° (N) 3,838 ? -11.1°
